User: anonymous   Login
Location: Vancouver
(49.2500°N, 123.1330°W)
Time: 12:07:23
(UTC-07:00)
Language:

Cosmos 2333 Rocket - Orbit

View from above orbital plane
View from above orbital plane
View from above satellite
View from above satellite

Ground track
Ground track

The orbit data is extracted from the following two-line orbital elements,

1 24298U 96051B   15108.58525138 -.00000130  00000-0 -43770-4 0  9999
2 24298 070.8470 288.6930 0018308 275.7881 117.0796 14.12426421960190
Epoch (UTC): 18 April 2015 14:02:45
Eccentricity: 0.0018308
inclination: 70.8470°
perigee height: 838 km
apogee height: 864 km
right ascension of ascending node: 288.6930°
argument of perigee: 275.7881°
revolutions per day: 14.12426421
mean anomaly at epoch: 117.0796°
orbit number at epoch: 96019

The dashed part of the orbit path shows where the satellite is in the earth's shadow,  

DLR